CAPE
3112 2524 2391 2063 1859 2111 2575 2779 2566 3137 1579 578 368 246 1929 3179 2943 3175 2848 2871 2536 3142 3034 2767 2555 3376 2689 2368 2222 2071 2135 2296 1743 1435 534 306 1212 2943 1877 2731 2309 2040 1437
3315 3324 2595 2300 2024 1708 1905 2541 2705 3263 3140 836 381 0 1687 2929 2914 2808 2833 1887 2621 2345 2643 2408 2489 2037 3124 2887 2459 2336 2450 2518 2159 1565 2200 1442 2641 3063 2764 2764 2817 1875 2020
3254 3172 2643 2535 2257 1926 1611 1817 2518 2531 2609 2327 1639 1882 2732 2712 2885 2469 3155 2750 3023 2937 2408 2461 2793 3082 2730 2853 2939 2402 2189 2224 2298 1954 2007 2832 3083 1651 2963 2730 2735 2847 2612
2979 2869 2877 2661 2229 1942 2023 1926 2095 2575 2040 2447 2572 2730 2638 2578 2966 2919 2751 2602 2484 2742 2553 2616 2796 2658 2549 2542 2370 2588 1958 2367 2271 1823 1971 2317 2680 3038 2563 2291 2497 2707 2669
2290 3345 3245 3227 2865 2592 2171 2708 2125 2712 2399 1987 2368 2644 2963 2671 2331 2804 2740 2433 2591 2248 2295 2359 2928 2796 2446 2556 1977 2549 2266 2184 2298 1791 1791 1870 2072 2117 2057 1883 1055 1035 2173
2452 2300 2895 2824 3333 3140 3060 2830 3205 2525 2758 2554 2392 2446 2887 2295 1435 1111 2141 2111 2715 2031 1953 2628 2859 2002 1763 1417 1318 1263 1784 1867 1862 1522 1776 1858 1485 1664 1889 1721 1817 1498 1274
2191 2901 2516 2795 3067 2641 2536 2892 2702 2930 2872 2568 2497 2437 2500 2691 1328 1075 1115 2171 2520 2761 2585 2659 2403 1329 1677 2189 1197 1030 980 866 684 1328 1884 2146 2240 1887 1970 1938 1612 1991 1839
2219 2251 2574 2139 1801 2892 2435 2675 2936 2884 2794 2748 2322 2429 2537 2715 2027 1759 1054 1422 1679 2046 2114 2953 2339 2017 2159 2277 2626 2372 2253 2156 1471 789 679 1114 1367 1750 2750 2656 1814 2083 1834
1338 2099 2444 2732 2466 2293 2474 2611 2647 2788 2675 2650 2565 2597 2624 2530 2389 2037 1554 1536 1533 1756 1833 1913 2305 2636 2105 1698 2233 2365 2239 2515 1960 1577 1748 1497 1392 1392 1559 1654 1442 1417 1192
763 1494 2486 2600 1459 1113 2073 2596 2602 2381 2701 2823 2811 2692 2523 2650 2533 2194 1650 1515 1520 1444 1775 1701 1391 1701 1891 1528 1553 2084 1930 2028 2546 1976 1665 1366 1470 1315 1117 1107 1409 1189 1231
998 1375 1645 2436 1384 478 986 1301 1615 1874 2136 2385 2583 2752 2868 2718 2643 2317 1799 1345 1495 1319 1152 1559 1810 1473 1104 1086 1148 2239 1682 1600 2051 1718 1826 1436 1504 1536 1395 1131 1437 1418 1164
1415 1290 1279 1625 1781 1108 90 4 91 352 1164 1621 2282 2368 2507 2718 2299 2369 2196 1626 1325 1378 1361 1666 1954 1815 1367 1151 1017 911 1017 1061 1019 1296 1485 1129 1276 1885 2078 1531 1135 840 550
1166 1148 959 1025 1510 1205 700 224 50 3 108 512 1332 2067 2058 2433 2822 2302 2065 1926 1296 1327 1673 1715 1260 1131 609 400 335 306 375 464 608 680 772 797 1428 1707 1625 1015 490 401 130
961 1022 930 895 911 1351 1225 768 199 32 3 0 56 786 1065 1036 1792 2664 2202 2110 1628 1172 1190 1295 873 574 428 299 332 237 197 219 258 564 661 1448 1812 1185 905 467 133 0 0
825 668 913 748 846 982 1355 1526 880 488 6 16 32 22 272 608 896 830 2236 1712 1765 1434 1036 938 771 619 511 388 456 439 290 293 405 831 1538 1650 1383 966 498 427 247 2 0
656 414 332 741 743 833 927 1540 1197 624 325 209 24 0 0 10 176 248 1017 1932 1467 1261 912 746 1045 1144 1090 1059 734 607 531 420 788 1121 1483 1018 609 340 147 2 0 0 0
979 969 804 356 699 765 572 1360 1561 856 503 306 95 0 1 0 0 0 519 1474 1155 839 870 1252 1712 1229 869 621 728 390 395 444 817 876 1018 647 333 242 60 0 0 0 0
1051 540 729 670 733 713 652 732 1556 1098 486 274 291 203 40 0 0 43 229 720 84 187 847 1493 1900 1145 762 604 538 589 520 457 588 615 502 335 135 54 0 0 0 0 0
939 1037 917 861 893 412 500 685 575 911 689 334 265 306 265 4 11 152 427 529 194 34 825 1257 930 601 474 763 304 656 511 458 647 297 207 71 0 0 0 0 0 0 0
1047 595 659 955 639 511 634 491 397 244 231 530 217 349 390 228 102 200 679 714 911 857 1027 962 777 382 301 402 357 243 753 628 346 202 45 3 2 0 0 0 0 0 0
1044 1026 486 680 825 668 653 695 601 423 296 762 857 734 414 438 373 300 503 702 1344 1062 885 905 678 341 485 1300 718 434 338 365 143 127 0 0 2 0 0 0 0 0 0
553 556 705 350 201 339 609 574 669 1164 994 929 770 690 517 434 453 460 126 453 759 1091 1032 533 270 212 125 329 581 540 496 500 133 4 0 0 0 0 0 0 3 0 0
756 309 406 426 790 621 1111 1222 1103 1452 937 915 840 722 649 526 646 557 530 431 369 920 1043 438 266 167 145 80 496 569 433 197 71 2 0 0 2 3 1 7 4 3 0
734 881 742 713 933 1295 1466 1468 1346 820 802 667 551 448 294 347 366 379 721 714 784 843 861 316 315 272 301 241 242 395 201 146 57 22 3 0 0 4 4 28 30 28 7
348 374 570 883 720 1031 1229 1206 1190 835 718 535 351 135 122 189 241 145 106 456 482 462 482 212 181 219 358 635 334 231 139 111 147 59 15 9 29 50 34 20 40 25 29
357 445 150 143 190 357 556 930 850 873 582 571 354 337 224 1 6 66 60 131 141 36 98 58 180 330 322 345 321 269 208 164 143 58 107 44 75 48 59 52 111 100 61
CIN
-0 -8 -9 -19 -15 -8 -2 -6 -15 -9 -46 -67 -17 -32 -9 -8 -12 -10 -20 -6 -8 -7 -13 -12 -7 -13 -27 -42 -37 -37 -40 -32 -36 -34 -4 -120 -27 -45 -120 -40 -42 -67 -21
-2 -2 -3 -13 -14 -13 -11 -3 -8 -6 -9 -18 -229 -0 -31 -6 -10 -7 -7 -14 -14 -19 -16 -14 -10 -1 -10 -25 -34 -42 -30 -37 -30 -25 -30 -64 -34 -30 -41 -43 -23 -8 -21
-3 -2 -1 -0 -5 -11 -23 -13 -8 -15 -15 -10 -33 -20 -15 -7 -10 -17 -10 -16 -4 -7 -22 -17 -11 -9 -6 -12 -6 -20 -40 -19 -37 -36 -50 -33 -41 -50 -53 -36 -38 -41 -44
-9 -4 -5 -3 -1 -7 -3 -15 -10 -15 -14 -6 -19 -11 -23 -15 -3 -4 -11 -17 -16 -5 -18 -17 -24 -23 -18 -22 -11 -17 -28 -19 -27 -43 -33 -34 -36 -55 -71 -66 -52 -50 -36
-6 -30 -20 -12 -9 -7 -9 -11 -17 -16 -6 -22 -16 -6 -6 -9 -4 -7 -16 -22 -13 -21 -28 -20 -8 -12 -17 -22 -19 -28 -28 -16 -19 -41 -30 -46 -36 -48 -50 -70 -20 -85 -83
-35 -22 -62 -27 -10 -15 -15 -26 -19 -18 -19 -12 -11 -7 -5 -0 -6 -23 -12 -17 -14 -46 -36 -22 -15 -5 -8 -4 -23 -23 -66 -27 -25 -35 -40 -34 -29 -41 -48 -58 -35 -44 -21
-3 -2 -37 -34 -7 -8 -11 -9 -12 -11 -11 -13 -6 -7 -6 -6 -29 -10 -9 -10 -12 -13 -24 -21 -12 -7 -25 -44 -32 -18 -42 -46 -73 -65 -31 -39 -39 -37 -15 -36 -48 -36 -33
-0 -1 -1 -31 -47 -10 -15 -8 -9 -13 -9 -8 -9 -6 -5 -3 -10 -16 -9 -59 -28 -20 -19 -13 -25 -24 -31 -22 -19 -23 -20 -23 -37 -45 -125 -95 -73 -56 -13 -10 -31 -21 -32
-2 -1 -1 -2 -3 -13 -13 -11 -9 -7 -7 -3 -5 -7 -5 -4 -1 -8 -16 -48 -35 -36 -32 -24 -21 -23 -20 -16 -23 -12 -22 -8 -17 -19 -22 -11 -29 -22 -18 -32 -17 -12 -10
-2 -1 -1 -1 -41 -95 -6 -1 -8 -18 -4 -2 -1 -3 -1 -4 -1 -3 -16 -28 -26 -31 -35 -54 -42 -28 -20 -22 -48 -41 -21 -9 -17 -44 -42 -11 -5 -7 -7 -27 -28 -9 -5
-3 -3 -2 -2 -41 -192 -78 -54 -31 -15 -10 -5 -5 -4 -3 -4 -2 -2 -16 -33 -28 -41 -46 -36 -46 -49 -49 -44 -29 -32 -30 -34 -20 -38 -26 -32 -46 -47 -20 -14 -11 -8 -3
-2 -3 -4 -2 -5 -30 -189 -102 -166 -144 -0 -20 -6 -8 -13 -5 -2 -10 -14 -26 -53 -38 -30 -25 -33 -18 -13 -34 -33 -33 -47 -20 -8 -26 -24 -24 -46 -30 -11 -11 -12 -13 -4
-2 -2 -7 -7 -2 -22 -40 -157 -121 -118 -31 -0 -0 -2 -19 -14 -3 -9 -39 -34 -46 -49 -33 -7 -5 -39 -71 -101 -128 -98 -81 -44 -18 -20 -18 -19 -34 -44 -20 -10 -6 -5 -33
-1 -3 -2 -3 -6 -10 -13 -19 -37 -116 -64 -0 -4 -0 -1 -3 -9 -6 -31 -32 -36 -45 -36 -19 -22 -25 -93 -114 -92 -71 -90 -70 -80 -27 -23 -21 -30 -27 -11 -23 -42 -0 -0
-1 -4 -2 -0 -4 -4 -21 -2 -20 -35 -80 -77 -119 -136 -92 -37 -4 -0 -7 -63 -59 -56 -64 -47 -39 -59 -116 -110 -68 -67 -66 -83 -44 -14 -8 -15 -13 -14 -15 -19 -16 -12 -0
-0 -4 -11 -0 -0 -0 -1 -30 -47 -35 -52 -51 -154 -81 -26 -14 -8 -7 -2 -19 -42 -68 -46 -40 -22 -22 -18 -18 -32 -33 -32 -37 -6 -5 -9 -17 -27 -20 -37 -23 -0 -0 -0
-0 -0 -1 -11 -1 -0 -3 -25 -13 -48 -70 -57 -92 -0 -24 -0 -0 -0 -0 -2 -34 -51 -40 -23 -1 -11 -30 -38 -17 -73 -56 -26 -10 -9 -11 -26 -32 -4 -50 -0 -0 -0 -0
-0 -2 -1 -0 -2 -0 -6 -2 -11 -72 -21 -33 -44 -9 -62 -0 -0 -30 -3 -1 -101 -0 -23 -23 -0 -10 -22 -36 -36 -38 -44 -33 -12 -17 -22 -24 -31 -78 -0 -0 -0 -0 -0
-0 -0 -0 -1 -2 -4 -16 -9 -5 -13 -32 -17 -28 -30 -34 -217 -33 -14 -0 -26 -22 -267 -44 -6 -17 -28 -48 -28 -77 -27 -50 -43 -18 -45 -48 -89 -0 -0 -0 -0 -0 -0 -0
-0 -9 -6 -1 -17 -7 -3 -12 -17 -48 -40 -65 -5 -12 -13 -31 -46 -137 -75 -73 -58 -98 -79 -38 -27 -58 -58 -64 -85 -91 -25 -34 -52 -80 -122 -22 -34 -0 -0 -0 -0 -0 -0
-1 -1 -12 -11 -7 -1 -4 -8 -1 -9 -27 -8 -18 -14 -25 -13 -69 -95 -109 -59 -7 -34 -32 -33 -57 -107 -53 -30 -50 -72 -63 -55 -102 -85 -0 -0 -22 -0 -0 -0 -0 -0 -0
-30 -26 -4 -32 -43 -53 -4 -14 -14 -5 -18 -28 -4 -6 -8 -33 -88 -105 -208 -102 -61 -17 -5 -36 -74 -91 -99 -37 -52 -50 -46 -42 -84 -11 -0 -0 -11 -1 -0 -0 -20 -0 -0
-13 -59 -45 -39 -11 -24 -30 -20 -8 -9 -10 -1 -2 -6 -0 -18 -23 -39 -70 -91 -101 -12 -17 -13 -44 -69 -101 -102 -16 -28 -44 -89 -112 -22 -0 -0 -5 -14 -8 -10 -8 -9 -7
-0 -7 -18 -34 -21 -3 -2 -1 -12 -29 -5 -3 -9 -7 -9 -13 -19 -16 -0 -0 -11 -1 -0 -0 -22 -9 -20 -49 -49 -26 -75 -106 -123 -130 -15 -0 -0 -2 -18 -19 -12 -10 -12
-12 -31 -11 -1 -17 -9 -2 -7 -4 -12 -0 -0 -16 -55 -55 -15 -2 -8 -26 -0 -0 -10 -4 -0 -38 -28 -20 -15 -21 -43 -51 -70 -66 -50 -26 -0 -73 -41 -27 -3 -35 -0 -16
-0 -1 -36 -63 -63 -39 -14 -6 -4 -3 -10 -0 -0 -2 -0 -0 -0 -35 -14 -8 -7 -28 -22 -25 -19 -10 -12 -13 -21 -14 -0 -0 -5 -57 -46 -66 -80 -26 -38 -28 -28 -35 -24
Wind_Speed
14 14 15 15 12 8 7 14 12 18 23 28 19 15 16 17 16 14 10 14 13 11 11 11 12 14 13 10 9 8 8 6 11 9 15 15 10 6 5 2 8 10 13
13 16 15 16 14 14 11 14 16 19 16 22 18 nan 6 13 15 13 13 11 16 12 12 10 8 9 9 12 4 12 13 12 13 8 5 7 5 5 7 5 5 6 12
20 18 18 18 17 14 15 10 19 22 17 13 19 13 12 11 13 14 20 19 18 14 13 9 10 10 12 11 11 7 16 14 14 10 8 7 9 6 8 6 7 9 8
23 21 23 22 20 17 12 15 12 19 20 15 17 18 17 15 14 16 18 18 16 14 12 11 12 11 12 11 12 11 11 16 12 11 7 8 8 11 14 11 11 12 11
33 25 25 28 24 20 18 14 14 15 18 16 14 15 17 14 15 15 17 20 19 16 15 14 12 11 11 14 15 11 7 12 13 11 11 11 11 11 13 12 15 16 14
35 31 31 26 25 21 20 20 18 14 16 17 14 13 14 14 15 13 17 21 18 18 14 16 15 11 10 16 13 12 17 12 11 13 13 12 13 16 15 15 15 18 16
39 37 35 34 27 24 22 22 20 18 19 16 15 13 13 14 13 16 16 19 21 24 20 20 18 13 14 15 14 13 14 16 15 15 14 13 14 14 12 13 14 17 16
45 44 41 36 35 29 26 22 23 25 18 18 17 15 15 15 18 21 22 20 20 23 23 23 21 18 19 20 21 20 16 16 19 17 14 14 11 13 15 17 16 16 17
45 50 52 50 42 37 31 27 25 27 25 19 19 17 15 15 20 21 24 21 19 21 26 24 23 21 20 26 26 24 20 18 18 14 12 16 18 16 18 19 19 19 19
36 46 51 53 55 50 41 37 33 27 26 26 22 18 15 15 20 22 24 20 16 19 22 23 20 21 25 24 26 27 23 22 26 23 24 23 22 21 23 21 21 21 24
32 32 33 43 50 49 52 55 50 35 28 27 23 22 18 17 18 24 23 19 18 21 23 23 22 21 24 28 28 26 24 29 28 27 24 22 20 22 26 24 23 24 21
35 35 35 30 35 43 nan nan nan 59 44 29 27 25 25 23 20 24 26 19 19 22 21 24 26 30 31 29 31 26 36 33 29 24 24 21 21 25 26 27 28 23 24
30 32 34 32 36 42 41 47 nan nan 28 57 36 32 29 31 27 24 28 22 17 20 20 22 36 33 35 34 31 34 39 35 30 24 25 21 21 25 28 26 24 28 29
31 34 36 31 32 38 41 43 47 nan nan nan nan 42 43 44 37 30 29 28 22 23 32 32 29 31 34 31 32 26 24 33 32 30 28 27 31 27 21 21 22 nan nan
32 33 37 36 32 34 37 41 41 39 nan nan nan nan 40 42 42 48 26 32 34 28 29 29 30 29 28 27 23 21 19 19 23 22 21 28 26 22 19 21 23 nan nan
24 30 35 34 33 34 36 39 33 40 42 35 nan nan nan nan 47 42 17 30 36 38 31 28 27 26 22 22 20 16 16 15 16 18 20 20 19 21 23 nan nan nan nan
26 28 30 32 34 34 33 34 34 37 37 33 nan nan nan nan nan nan 37 40 41 35 29 26 26 24 21 20 17 17 16 15 18 17 18 19 20 23 nan nan nan nan nan
23 25 28 27 31 33 32 33 34 35 36 30 32 40 nan nan nan nan 21 33 nan 28 28 20 19 20 21 21 16 19 18 17 18 18 19 22 25 nan nan nan nan nan nan
24 29 28 27 30 30 32 34 36 34 33 32 38 38 52 nan nan 10 4 36 43 nan 11 14 19 20 21 22 23 24 23 19 22 22 25 nan nan nan nan nan nan nan nan
20 18 24 27 30 33 33 29 30 32 31 34 23 39 41 32 24 24 20 16 16 25 26 22 20 23 23 24 27 26 29 29 27 28 nan nan nan nan nan nan nan nan nan
21 19 21 25 31 30 32 29 25 29 28 36 37 29 36 32 37 36 24 19 16 24 28 23 21 24 33 30 33 34 31 30 33 32 nan nan nan nan nan nan nan nan nan
12 19 20 19 22 26 21 21 23 33 35 33 32 33 28 27 31 31 26 24 25 24 26 30 28 25 27 32 33 38 34 32 36 nan nan nan nan nan nan nan nan nan nan
8 15 3 2 5 2 9 14 22 29 27 29 29 32 29 25 28 29 30 31 31 29 29 32 32 33 34 nan 36 35 37 37 nan nan nan nan nan nan nan nan nan nan nan
2 4 7 5 8 7 9 12 17 20 22 25 27 29 31 30 28 31 33 36 33 34 33 31 30 31 37 38 37 35 39 41 nan nan nan nan nan nan nan nan nan nan nan
14 14 14 12 15 13 11 7 11 12 19 23 29 27 31 30 29 34 39 40 34 31 33 33 34 36 39 42 39 39 42 42 41 nan nan nan nan nan nan nan nan nan nan
14 15 16 14 18 17 15 11 12 15 19 27 28 29 31 nan nan nan nan 36 37 nan nan nan 47 44 41 40 39 48 53 47 45 nan 42 nan nan nan nan nan 38 41 nan
Wind_Direction
352 339 344 335 337 328 296 297 298 286 270 279 244 221 237 244 246 252 244 248 230 219 215 218 221 211 210 218 222 238 223 256 253 256 300 65 112 296 287 227 282 290 311
334 329 336 326 339 350 335 305 295 285 277 280 284 nan 252 249 256 255 257 241 253 243 218 233 235 217 218 216 209 209 217 213 235 229 287 355 325 334 321 305 276 287 293
315 320 324 328 331 337 341 333 305 299 294 281 300 296 263 261 251 278 254 241 237 258 212 231 252 234 241 232 231 221 222 213 212 245 206 249 273 282 289 300 290 279 269
291 307 313 316 323 329 325 323 325 305 308 297 283 291 286 277 269 279 265 238 227 237 238 226 248 252 266 265 246 239 209 203 208 218 226 234 258 267 275 275 269 265 280
250 261 276 296 301 302 311 304 311 305 300 298 287 286 292 281 264 269 278 251 234 238 230 227 232 244 281 283 272 268 236 210 221 217 220 229 238 247 269 264 267 258 270
255 250 250 260 283 287 283 291 298 293 292 285 283 285 271 257 277 279 270 268 256 255 239 242 243 239 262 278 287 287 280 264 241 236 245 236 229 239 244 250 260 265 268
254 252 249 254 257 266 275 275 279 284 277 284 275 271 279 268 258 271 283 265 250 249 249 249 253 247 266 274 272 271 273 282 280 259 249 248 244 257 250 265 275 277 284
258 256 252 246 259 258 263 268 274 274 274 267 273 271 265 267 270 268 271 260 249 246 251 251 255 255 241 253 265 261 257 260 273 273 281 279 273 264 269 272 264 268 269
256 251 252 252 250 253 255 258 262 265 271 271 259 266 273 262 272 275 267 260 256 253 253 253 260 265 262 265 265 264 260 262 265 283 293 275 272 276 280 275 276 282 280
266 255 253 257 254 250 248 247 245 253 259 260 262 259 264 265 268 273 272 255 257 256 262 262 266 263 271 270 256 259 260 260 260 256 263 263 270 273 279 284 284 289 289
261 256 254 258 261 257 251 247 236 231 244 250 251 251 251 254 255 269 272 259 252 254 254 259 266 282 276 270 271 260 260 258 260 257 252 259 266 277 282 289 290 287 287
265 262 259 253 263 260 nan nan nan 235 222 231 248 244 242 246 250 260 271 276 257 252 256 260 258 275 275 274 268 267 265 255 257 257 255 255 262 275 279 281 281 274 266
266 269 267 259 260 266 257 253 nan nan 255 210 215 236 241 239 239 256 273 274 264 254 253 252 271 271 276 271 271 270 266 257 248 255 256 251 263 276 279 268 260 267 273
260 258 262 265 265 268 269 261 268 nan nan nan nan 213 225 227 224 233 243 249 241 242 247 254 261 264 266 272 280 275 269 250 246 248 248 247 265 268 264 269 278 nan nan
262 264 262 266 265 265 273 272 272 272 nan nan nan nan 226 221 225 212 223 246 252 254 251 254 257 259 263 269 279 284 280 259 250 258 249 251 254 255 267 278 280 nan nan
263 270 265 262 263 262 265 271 274 278 287 278 nan nan nan nan 209 200 190 251 255 262 251 255 262 266 270 272 275 276 265 255 249 251 247 248 253 268 272 nan nan nan nan
270 268 263 258 254 254 260 262 261 265 268 244 nan nan nan nan nan nan 211 219 232 244 240 246 255 260 264 264 261 267 261 253 245 234 239 256 268 270 nan nan nan nan nan
280 275 266 259 253 251 251 252 260 262 258 252 249 260 nan nan nan nan 275 237 nan 204 208 219 242 259 262 264 254 252 248 241 244 242 250 259 268 nan nan nan nan nan nan
283 272 268 259 251 257 252 249 243 251 254 247 244 247 247 nan nan 278 257 233 235 nan 266 227 228 253 258 262 258 245 254 245 252 257 258 nan nan nan nan nan nan nan nan
283 296 266 260 254 249 259 256 248 241 238 239 261 260 254 267 250 257 263 271 273 254 267 255 247 254 249 260 259 254 251 248 252 259 nan nan nan nan nan nan nan nan nan
287 276 279 260 244 240 238 243 251 242 237 218 247 235 255 257 257 254 249 253 260 259 261 269 273 269 252 254 261 258 254 252 256 260 nan nan nan nan nan nan nan nan nan
294 270 260 261 251 219 218 234 232 234 234 227 224 229 258 248 250 251 250 256 250 247 253 264 271 284 255 246 267 266 259 260 262 nan nan nan nan nan nan nan nan nan nan
292 343 356 177 315 85 199 228 226 229 229 224 226 227 235 233 237 236 252 256 252 254 260 268 273 265 265 nan 267 268 255 259 nan nan nan nan nan nan nan nan nan nan nan
247 253 264 225 178 256 259 241 239 238 232 226 220 223 225 230 238 231 235 239 252 263 266 272 263 278 269 269 270 262 253 256 nan nan nan nan nan nan nan nan nan nan nan
220 216 220 205 193 205 218 190 215 227 237 232 238 238 237 237 236 236 238 243 239 263 271 273 269 272 263 263 268 273 273 269 263 nan nan nan nan nan nan nan nan nan nan
219 212 210 211 204 184 185 194 224 226 230 229 227 227 226 nan nan nan nan 250 241 nan nan nan 266 269 264 261 255 254 262 269 265 nan 268 nan nan nan nan nan 276 269 nan